User: anonymous   Login
Location: Muenchen
(48.1800°N, 11.5800°E)
Time: 18:40:29
(UTC+02:00)
Language:

Sich 1 Rocket - Orbit

View from above orbital plane
View from above orbital plane
View from above satellite
View from above satellite

Ground track
Ground track

The orbit data is extracted from the following two-line orbital elements,

1 23659U 95046C   16205.24145323  .00000073  00000-0  69401-5 0  9992
2 23659  82.5292 250.6546 0024554 227.6005 199.9706 14.78194476125959
Epoch (UTC): 23 July 2016 05:47:41
Eccentricity: 0.0024554
inclination: 82.5292°
perigee height: 618 km
apogee height: 652 km
right ascension of ascending node: 250.6546°
argument of perigee: 227.6005°
revolutions per day: 14.78194476
mean anomaly at epoch: 199.9706°
orbit number at epoch: 12595

The dashed part of the orbit path shows where the satellite is in the earth's shadow,  

DLR